DLH6RA EDDH-EVRA

Flight info

Callsign DLH6RA
Flight time N/A
Altitude 37000
Route LUGEG3G/33 LUGEG P605 MEGAR DCT KOSEB DCT NINTA DCT ADAXA M405 ORVIX
Aircraft A319/M-SDE3FGHIRWY/LB1

Departure

Time 2026-04-24 16:57
Airport Hamburg Helmut Schmidt Airport (EDDH)

Arrival

Time N/A
Airport Riga International Airport (EVRA)
Time Latitude Longitude Altitude Speed Heading
2026-04-24 16:23 53.63206 10.00364 49 ft 0 kts 86°
2026-04-24 16:49 53.63206 10.00352 48 ft 3 kts 86°
2026-04-24 16:49 53.63204 10.00317 48 ft 3 kts 86°
2026-04-24 16:50 53.63204 10.00294 48 ft 3 kts 94°
2026-04-24 16:50 53.63213 10.00252 48 ft 3 kts 148°
2026-04-24 16:50 53.63223 10.00245 43 ft 0 kts 176°
2026-04-24 16:52 53.63204 10.00247 48 ft 8 kts 176°
2026-04-24 16:53 53.63141 10.00254 47 ft 9 kts 176°
2026-04-24 16:53 53.63075 10.00259 48 ft 10 kts 185°
2026-04-24 16:53 53.63013 10.00208 47 ft 10 kts 213°
2026-04-24 16:53 53.62953 10.00142 48 ft 7 kts 213°
2026-04-24 16:54 53.62926 10.00112 48 ft 3 kts 213°
2026-04-24 16:54 53.62908 10.00091 46 ft 4 kts 213°
2026-04-24 16:54 53.62885 10.00064 48 ft 4 kts 219°
2026-04-24 16:54 53.62863 10.00022 48 ft 5 kts 240°
2026-04-24 16:55 53.62847 9.99969 48 ft 4 kts 243°
2026-04-24 16:55 53.62842 9.99952 48 ft 2 kts 243°
2026-04-24 16:55 53.62828 9.99908 47 ft 6 kts 243°
2026-04-24 16:55 53.62811 9.99825 45 ft 8 kts 275°
2026-04-24 16:56 53.62848 9.99762 45 ft 0 kts 332°
2026-04-24 16:56 53.62854 9.99756 45 ft 2 kts 332°
2026-04-24 16:56 53.62857 9.99754 45 ft 0 kts 332°
2026-04-24 16:56 53.62860 9.99751 45 ft 3 kts 332°
2026-04-24 16:57 53.62953 9.99668 45 ft 42 kts 332°
2026-04-24 16:57 53.63444 9.99241 45 ft 114 kts 333°
2026-04-24 16:57 53.64315 9.98492 166 ft 156 kts 331°
2026-04-24 16:57 53.65247 9.97767 940 ft 144 kts 331°
2026-04-24 16:58 53.66148 9.97121 1765 ft 135 kts 335°
2026-04-24 16:58 53.66986 9.96569 2508 ft 128 kts 338°
2026-04-24 16:58 53.67795 9.95968 3063 ft 132 kts 330°
2026-04-24 16:58 53.68678 9.95195 3391 ft 155 kts 337°
2026-04-24 16:59 53.69810 9.94824 3702 ft 179 kts 354°
2026-04-24 16:59 53.71144 9.94745 4096 ft 200 kts 356°
2026-04-24 16:59 53.73816 9.96099 5618 ft 225 kts 41°
2026-04-24 17:00 53.74686 9.98537 6023 ft 257 kts 59°
2026-04-24 17:00 53.76295 10.04226 7563 ft 274 kts 59°
2026-04-24 17:00 53.77120 10.07151 8436 ft 278 kts 59°
2026-04-24 17:01 53.78536 10.12107 9900 ft 285 kts 59°
2026-04-24 17:01 53.79415 10.15169 10504 ft 298 kts 59°
2026-04-24 17:02 53.81315 10.21748 11668 ft 321 kts 60°
2026-04-24 17:02 53.82305 10.25189 12259 ft 332 kts 60°
2026-04-24 17:02 53.83324 10.28747 12912 ft 337 kts 60°
2026-04-24 17:02 53.84335 10.32298 13684 ft 341 kts 60°
2026-04-24 17:03 53.86409 10.39609 15033 ft 348 kts 60°
2026-04-24 17:03 53.87460 10.43323 15687 ft 352 kts 61°
2026-04-24 17:03 53.88524 10.47085 16336 ft 356 kts 61°
2026-04-24 17:04 53.89600 10.50890 16989 ft 359 kts 61°
2026-04-24 17:04 53.91786 10.58626 18299 ft 367 kts 62°
2026-04-24 17:04 53.92892 10.62559 18884 ft 371 kts 62°
2026-04-24 17:05 53.94127 10.66413 19452 ft 372 kts 53°
2026-04-24 17:05 53.95721 10.69795 20012 ft 372 kts 44°
2026-04-24 17:05 53.99299 10.76256 21175 ft 378 kts 44°
2026-04-24 17:06 54.01107 10.79528 21728 ft 381 kts 44°
2026-04-24 17:06 54.04760 10.86173 22856 ft 388 kts 44°
2026-04-24 17:06 54.06606 10.89549 23412 ft 391 kts 44°
2026-04-24 17:07 54.08463 10.92960 23890 ft 394 kts 44°
2026-04-24 17:07 54.10332 10.96402 24337 ft 397 kts 44°
2026-04-24 17:07 54.14092 11.03343 25221 ft 401 kts 44°
2026-04-24 17:08 54.17888 11.10390 26100 ft 405 kts 44°
2026-04-24 17:08 54.19801 11.13948 26526 ft 407 kts 44°
2026-04-24 17:08 54.21695 11.17469 26938 ft 410 kts 44°
2026-04-24 17:09 54.25566 11.24699 27771 ft 414 kts 45°
2026-04-24 17:09 54.29473 11.32024 28593 ft 418 kts 45°
2026-04-24 17:10 54.31435 11.35714 28995 ft 421 kts 45°
2026-04-24 17:10 54.37389 11.46955 30147 ft 427 kts 45°
2026-04-24 17:11 54.43435 11.58397 31059 ft 434 kts 45°
2026-04-24 17:12 54.51921 11.80102 32861 ft 441 kts 56°